FW2359 Weather Reports


time (UTC)temp
F
wind
direction
speed
knots
gust
knots
rain 1hr
in
rain 24hr
in
rain mn
in
humidity
%
barometer
mb
20260506200029 68 255 14.8 24.3 0.00 0.02 0.02 55 1017.9
20260506193030 67 244 17.4 29.5 0.02 0.02 0.02 56 1017.6
20260506191532 67 243 18.2 29.5 0.02 0.02 0.02 57 1017.7
20260506190032 66 253 20.0 32.2 0.02 0.02 0.02 59 1017.3
20260506184647 66 252 21.7 34.8 0.02 0.02 0.00 59 1017.3
20260506183030 66 252 17.4 31.3 0.00 0.00 0.00 60 1017.6
20260506180030 65 250 12.2 23.5 0.00 0.00 0.00 62 1018.4
20260506174606 65 240 10.4 29.5 0.00 0.00 0.00 62 1018.5
20260506173108 64 237 12.2 24.3 0.00 0.00 0.00 63 1018.2
20260506171531 64 256 14.8 24.3 0.00 0.00 0.00 64 1017.9
20260506170028 63 257 15.6 28.7 0.00 0.00 0.00 66 1017.7
20260506164530 63 253 13.0 20.9 0.00 0.00 0.00 67 1017.8
20260506163031 63 242 14.8 24.3 0.00 0.00 0.00 67 1018.2
20260506161531 62 238 14.8 23.5 0.00 0.00 0.00 68 1018.6
20260506160029 62 236 13.9 22.6 0.00 0.00 0.00 69 1018.5
20260506154531 62 235 13.0 22.6 0.00 0.00 0.00 69 1018.5
20260506153029 62 247 13.9 24.3 0.00 0.00 0.00 69 1018.3
20260506151531 61 245 12.2 20.9 0.00 0.00 0.00 69 1018.2
20260506144531 60 248 13.0 21.7 0.00 0.00 0.00 70 1018.0
20260506143029 60 248 13.0 23.5 0.00 0.00 0.00 70 1017.9
20260506141530 60 241 11.3 23.5 0.00 0.00 0.00 70 1017.9
20260506140032 59 236 9.6 18.2 0.00 0.00 0.00 71 1017.9
20260506134533 59 240 11.3 25.2 0.00 0.00 0.00 71 1017.7
20260506131532 59 236 13.0 21.7 0.00 0.00 0.00 72 1017.6
20260506130107 59 237 13.9 26.1 0.00 0.00 0.00 72 1017.4
20260506124532 59 239 14.8 26.1 0.00 0.00 0.00 72 1017.3
20260506121604 59 234 13.9 26.9 0.00 0.00 0.00 72 1017.0
20260506120030 59 238 16.5 30.4 0.00 0.00 0.00 72 1017.0
20260506114529 59 232 14.8 29.5 0.00 0.00 0.00 72 1016.9
20260506113029 59 235 12.2 25.2 0.00 0.00 0.00 72 1016.8
20260506111532 59 235 10.4 21.7 0.00 0.00 0.00 72 1016.7
20260506110029 59 237 12.2 22.6 0.00 0.00 0.00 72 1016.5
20260506104635 0 0 0.0 0.0 0.00 0.00 0.00 100
20260506101532 59 234 8.7 15.6 0.00 0.00 0.00 74 1016.2
20260506100048 59 232 10.4 18.2 0.00 0.00 0.00 74 1016.1
20260506094645 59 239 9.6 19.1 0.00 0.00 0.00 74 1016.0
20260506091529 59 242 12.2 20.9 0.00 0.00 0.00 74 1015.8
20260506090030 59 240 13.0 24.3 0.00 0.00 0.00 74 1015.6
20260506084607 59 235 11.3 20.0 0.00 0.00 0.00 75 1015.7
20260506083030 59 241 10.4 21.7 0.00 0.00 0.00 75 1015.5
20260506081528 59 242 11.3 23.5 0.00 0.00 0.00 75 1015.5
20260506073033 59 241 7.8 20.9 0.00 0.00 0.00 74 1015.4
20260506071528 59 242 8.7 17.4 0.00 0.00 0.00 74 1015.3
20260506044530 59 273 8.7 13.0 0.00 0.00 0.00 75 1014.2
20260506034529 60 276 6.1 13.0 0.00 0.00 0.00 71 1013.4
20260506033106 61 267 6.1 12.2 0.00 0.00 0.00 70 1013.2
20260506031529 62 270 6.1 13.0 0.00 0.00 0.00 69 1013.1
20260506030033 63 267 6.1 12.2 0.00 0.00 0.00 67 1012.9
20260506024543 64 268 6.1 13.9 0.00 0.00 0.00 65 1012.7
20260506021532 66 262 7.8 16.5 0.00 0.00 0.00 62 1012.6
20260506020030 67 268 7.0 12.2 0.00 0.00 0.00 60 1012.5
20260506014531 68 269 7.0 13.0 0.00 0.00 0.00 57 1012.5
20260506013029 70 254 4.3 13.9 0.00 0.00 0.00 56 1012.4
20260506011606 70 251 6.1 15.6 0.00 0.00 0.00 55 1012.3
20260506010031 70 251 6.1 18.2 0.00 0.00 0.00 55 1012.3
20260506003029 70 262 8.7 15.6 0.00 0.00 0.00 56 1012.2
20260506000032 70 260 9.6 17.4 0.00 0.00 0.00 57 1012.3
20260505234529 70 265 10.4 18.2 0.00 0.00 0.00 56 1012.3
20260505233032 70 262 10.4 17.4 0.00 0.00 0.00 56 1012.5
20260505223029 70 271 9.6 18.2 0.00 0.00 0.00 56 1012.8
20260505221532 70 263 10.4 20.0 0.00 0.00 0.00 55 1013.0
20260505220030 70 261 9.6 16.5 0.00 0.00 0.00 56 1013.1
20260505214533 70 265 8.7 14.8 0.00 0.00 0.00 56 1013.2
20260505213033 70 265 10.4 19.1 0.00 0.00 0.00 56 1013.3
20260505211531 70 261 9.6 19.1 0.00 0.00 0.00 56 1013.4
20260505210031 69 267 8.7 16.5 0.00 0.00 0.00 56 1013.5
20260505204607 70 266 8.7 17.4 0.00 0.00 0.00 56 1013.6
20260505203033 70 266 8.7 15.6 0.00 0.00 0.00 56 1013.7